Regional Weather Roundup
Issued by NWS

Home | Current Version | Previous Version | Text Only | Print | Product List | Glossary On
Versions: 1 2 3 4 5 6 7 8 9 10 11 12 13 14 15 16 17 18 19 20 21 22 23 24 25 26 27 28 29 30 31 32 33 34 35 36 37 38 39 40 41 42 43 44 45 46 47 48 49
000
ASUS46 KPQR 300210
RWROR

OREGON REGIONAL WEATHER ROUNDUP
NATIONAL WEATHER SERVICE PORTLAND OR
600 PM PST THU JAN 29 2015

NOTE: "FAIR" INDICATES FEW OR NO CLOUDS BELOW 12,000 FEET WITH
NO SIGNIFICANT WEATHER AND/OR OBSTRUCTIONS TO VISIBILITY.

ORZ001>013-300300-
NORTHWEST OREGON


CITY           SKY/WX    TMP DP  RH WIND       PRES   REMARKS
ASTORIA        CLEAR     49  43  80 N9        30.26R
NEWPORT        CLEAR     50  48  93 N8        30.26R
PORTLAND       PTCLDY    45  36  70 SE14      30.28S
VANCOUVER WA   CLEAR     45  36  70 SE8       30.28R
SCAPPOOSE      CLEAR     44  42  93 CALM      30.27R
HILLSBORO      CLEAR     47  42  83 NE6       30.26R
AURORA         CLEAR     46  37  71 N12       30.27R
MCMINNVILLE    CLEAR     50  41  71 E7        30.26R
SALEM          CLEAR     51  38  60 N9        30.25R
CORVALLIS      CLEAR     50  43  76 NE8       30.26R
EUGENE         CLEAR     45  42  89 NW7       30.24S
$$

ORZ021-028-300300-
SOUTHWEST OREGON


CITY           SKY/WX    TMP DP  RH WIND       PRES   REMARKS
NORTH BEND     CLEAR     52  52 100 N10       30.22R
BROOKINGS      CLEAR     51  49  93 CALM      30.17R
ROSEBURG       CLOUDY    48  44  86 VRB3      30.25R
SEXTON SUMMIT  CLEAR     47  38  71 N7        30.20R
MEDFORD        PTCLDY    54  41  61 SW3       30.18R
$$

ORZ014>016-041-300300-
COLUMBIA GORGE


CITY           SKY/WX    TMP DP  RH WIND       PRES   REMARKS
TROUTDALE      CLEAR     45  35  68 E25G35    30.27R
THE DALLES     MOCLDY    41  35  79 E7        30.44R
$$

ORZ029>031-041-044-049-050-061>064-502-503-505>511-300300-
EASTERN OREGON


CITY           SKY/WX    TMP DP  RH WIND       PRES   REMARKS
REDMOND        CLOUDY    37  35  92 NW7       30.30R WCI  32
BEND           CLOUDY    37  37 100 CALM      30.30R
PRINEVILLE     CLOUDY    37  37 100 SW7       30.30R WCI  32
KLAMATH FALLS  MOCLDY    40  33  76 VRB3      30.19S
LAKEVIEW       PTCLDY    43  32  65 N10       30.23R
HERMISTON      CLOUDY    39  34  82 NE5       30.43S
PENDLETON      CLOUDY    35  33  92 S3        30.39R
JOHN DAY       CLEAR     42  32  67 E8        30.28R
MEACHAM        PTCLDY    35  29  78 CALM      30.30R
LA GRANDE      CLEAR     39  27  60 SE8       30.32R WCI  34
BAKER CITY     CLEAR     29  26  89 E6        30.34S WCI  23
BURNS          CLEAR     33  28  81 NE13      30.29R WCI  24
ROME             N/A     35  30  82 N10       30.28R WCI  27
ONTARIO        CLOUDY    42  36  79 CALM      30.37S
$$


USA.gov is the U.S. government's official web portal to all federal, state and local government web resources and services.